GFSCGP_850_dewp_303.txt.gz
Dewpoint
-6 -5 -4 -6 -5 -6 -8 -8 -7 -8 -7 -5 -4 -4 -5 -7 -8 -9 -9 -9 -9 -9 -10 -11 -12 -13 -13 -13 -12 -13 -14 -16 -17 -19 -18 -14 -18 -19 -17 -16 -15 -15 -15 -15
-6 -5 -7 -9 -8 -9 -8 -7 -7 -8 -7 -6 -6 -7 -8 -7 -7 -8 -9 -9 -9 -9 -9 -10 -11 -12 -13 -13 -12 -12 -12 -13 -16 -17 -18 -16 -14 -18 -19 -17 -17 -16 -15 -15
-5 -7 -9 -9 -9 -9 -9 -8 -9 -9 -8 -8 -7 -7 -12 -10 -8 -8 -9 -9 -9 -10 -10 -9 -10 -12 -13 -13 -13 -13 -12 -12 -14 -15 -16 -18 -14 -14 -19 -19 -17 -16 -15 -15
-7 -9 -8 -9 -8 -9 -8 -10 -10 -9 -6 -7 -8 -7 -7 -11 -9 -8 -9 -9 -9 -10 -10 -10 -10 -10 -12 -14 -14 -14 -13 -12 -12 -12 -14 -17 -18 -15 -14 -19 -17 -16 -16 -15
-9 -8 -8 -8 -8 -11 -8 -10 -8 -6 -4 -4 -6 -6 -8 -9 -11 -9 -9 -10 -10 -11 -11 -11 -10 -10 -10 -12 -14 -14 -14 -13 -13 -12 -12 -14 -17 -17 -13 -16 -19 -17 -16 -16
-8 -11 -11 -10 -11 -11 -10 -8 -4 -1 -3 -3 -6 -4 -2 -7 -10 -9 -11 -11 -11 -10 -11 -12 -12 -11 -10 -10 -11 -13 -14 -14 -13 -13 -12 -13 -15 -17 -15 -14 -18 -19 -16 -16
-6 -7 -12 -12 -10 -9 -8 -8 -5 -8 -3 -2 -4 -4 -3 -6 -8 -9 -10 -11 -12 -13 -14 -13 -13 -13 -11 -11 -11 -11 -13 -14 -14 -13 -13 -13 -14 -15 -17 -15 -13 -18 -18 -17
-5 -7 -9 -12 -11 -8 -8 -9 -6 -11 -8 -7 -6 -3 -7 -9 -10 -10 -10 -12 -13 -14 -15 -15 -15 -14 -13 -12 -11 -11 -12 -14 -14 -14 -14 -13 -13 -13 -15 -16 -14 -14 -19 -17
-5 -6 -12 -13 -14 -11 -8 -8 -9 -5 -4 -3 -5 -7 -9 -10 -12 -10 -11 -12 -13 -12 -11 -10 -10 -12 -14 -14 -13 -12 -12 -13 -13 -13 -13 -13 -13 -13 -14 -16 -16 -13 -16 -18
-7 -6 -9 -12 -13 -12 -9 -9 -6 -5 -4 -6 -7 -7 -6 -10 -12 -12 -10 -11 -11 -10 -10 -9 -9 -9 -10 -11 -13 -12 -11 -12 -13 -13 -13 -13 -13 -13 -13 -13 -15 -16 -13 -17
-8 -7 -7 -9 -9 -8 -9 -8 -6 -6 -3 -4 -4 -4 -10 -9 -12 -11 -11 -11 -11 -11 -10 -9 -9 -9 -10 -9 -10 -11 -12 -11 -12 -12 -13 -12 -13 -13 -13 -13 -14 -15 -14 -13
-8 -6 -5 -7 -10 -11 -12 -10 -7 0 -5 -2 -1 -2 -9 -11 -10 -11 -11 -12 -12 -10 -9 -9 -9 -10 -12 -12 -12 -10 -10 -11 -11 -12 -12 -12 -12 -12 -12 -12 -13 -14 -15 -13
-7 -6 -4 -6 -7 -8 -8 -9 -7 -4 -3 -2 1 -3 -11 -9 -9 -10 -10 -12 -10 -9 -9 -9 -9 -12 -13 -11 -10 -10 -10 -10 -11 -11 -11 -12 -12 -13 -12 -12 -12 -13 -14 -15
-8 -6 -5 -3 -7 -5 -6 -7 -7 -6 -1 -2 -4 -7 -8 -8 -8 -10 -10 -10 -9 -9 -8 -8 -9 -10 -13 -11 -11 -11 -10 -9 -10 -11 -11 -12 -13 -13 -13 -12 -12 -12 -13 -14
-7 -5 -6 -7 -6 -6 -6 -6 -6 -4 -7 -4 -5 -6 -7 -8 -8 -9 -9 -9 -9 -8 -8 -8 -9 -9 -12 -13 -14 -11 -10 -9 -9 -11 -12 -12 -12 -13 -13 -12 -12 -12 -12 -12
-6 -3 -6 -5 -6 -5 -4 -5 -5 -6 -6 -7 -7 -6 -9 -9 -9 -9 -9 -9 -8 -7 -8 -8 -9 -9 -12 -13 -14 -12 -11 -10 -10 -11 -12 -12 -12 -12 -12 -12 -12 -12 -11 -11
-5 -3 -3 -1 -3 -3 -1 -3 -4 -4 -6 -6 -4 -6 -7 -7 -7 -7 -7 -7 -7 -7 -7 -8 -9 -10 -12 -12 -13 -15 -13 -11 -11 -11 -11 -11 -11 -12 -12 -12 -12 -12 -11 -11
-4 -4 -1 -0 -2 2 -3 -5 -5 -4 -4 -5 -6 -6 -6 -6 -6 -6 -6 -6 -7 -7 -7 -8 -8 -10 -7 -7 -7 -8 -11 -14 -12 -11 -11 -11 -11 -11 -11 -11 -11 -11 -11 -11
-5 -2 1 2 1 -1 -2 -4 -4 -3 -2 -4 -4 -5 -5 -5 -6 -8 -9 -9 -8 -7 -8 -8 -8 -4 -4 -4 -4 -4 -4 -4 -7 -12 -13 -11 -11 -11 -11 -11 -11 -11 -11 -11
-3 -3 2 0 2 3 -2 -5 -5 -5 -2 -7 -5 -4 -5 -6 -4 -4 -9 -9 -9 -8 -8 -6 -4 -4 -4 -4 -3 -3 -3 -3 -3 -3 -5 -9 -13 -13 -12 -12 -12 -11 -11 -11
-0 -0 1 1 3 1 -2 -6 -6 -3 -0 -7 -7 -7 -6 -5 -6 -7 -9 -9 -8 -7 -5 -5 -4 -4 -4 -3 -3 -3 -3 -3 -3 -4 -3 -3 -3 -6 -11 -13 -12 -12 -12 -12
0 2 2 1 3 3 -3 -6 -3 -3 -6 -6 -7 -7 -7 -7 -7 -7 -8 -8 -8 -6 -5 -5 -4 -4 -4 -4 -3 -3 -2 -2 -2 -2 -3 -3 -3 -3 -3 -8 -12 -12 -12 -12
-1 -0 2 1 0 -3 -4 -4 -6 -7 -6 -7 -6 -6 -6 -7 -6 -6 -7 -8 -8 -7 -6 -5 -5 -4 -4 -3 -4 -2 -1 -2 -2 -2 -2 -3 -3 -3 -2 -3 -4 -10 -12 -12
-3 -4 -2 -3 -3 -3 -4 -5 -5 -5 -5 -5 -5 -5 -5 -5 -6 -5 -6 -7 -7 -7 -6 -6 -5 -5 -5 -5 -3 -1 -1 -1 -1 -2 -3 -5 -5 -4 -3 -3 -3 -4 -7 -11
-2 -4 -3 -3 -4 -5 -5 -6 -6 -6 -6 -6 -6 -6 -5 -5 -5 -5 -5 -5 -5 -7 -7 -6 -6 -6 -5 -4 -2 -1 -1 -1 -2 -3 -6 -6 -6 -6 -5 -3 -3 -3 -4 -5
-3 -3 -2 -1 -3 -4 -4 -4 -4 -5 -5 -5 -5 -5 -5 -5 -5 -4 -4 -4 -4 -5 -7 -7 -6 -5 -4 -3 -2 -1 -1 -2 -3 -4 -3 -3 -5 -6 -6 -6 -4 -3 -3 -4

GFSCGP_850_dewp_309.txt.gz
Dewpoint
-5 -5 -5 -6 -6 -7 -9 -10 -9 -10 -9 -7 -8 -9 -10 -11 -8 -6 -8 -9 -9 -9 -9 -8 -8 -9 -9 -9 -8 -8 -7 -8 -8 -9 -10 -11 -12 -12 -15 -18 -19 -18 -18 -18
-5 -6 -7 -8 -7 -7 -9 -9 -9 -10 -9 -8 -9 -9 -9 -9 -9 -10 -7 -8 -9 -9 -9 -9 -8 -8 -9 -9 -9 -9 -8 -8 -11 -11 -10 -7 -6 -6 -7 -12 -17 -20 -19 -18
-7 -5 -8 -7 -7 -7 -9 -7 -9 -8 -9 -9 -7 -7 -9 -9 -8 -8 -7 -8 -9 -9 -9 -9 -8 -8 -8 -9 -9 -10 -11 -10 -10 -12 -12 -12 -8 -9 -10 -12 -14 -17 -21 -19
-7 -8 -7 -7 -7 -8 -6 -8 -8 -7 -6 -8 -8 -10 -9 -11 -10 -9 -8 -8 -8 -9 -8 -9 -9 -8 -8 -9 -10 -9 -10 -11 -10 -9 -11 -11 -14 -15 -16 -17 -17 -15 -18 -20
-5 -8 -7 -6 -7 -9 -7 -7 -6 -6 -5 -6 -4 -4 -9 -11 -10 -10 -10 -9 -8 -8 -8 -8 -8 -8 -8 -8 -9 -11 -10 -11 -11 -12 -12 -12 -12 -14 -13 -10 -10 -13 -14 -17
-6 -9 -8 -8 -9 -9 -9 -7 -6 -4 -3 -0 -4 -7 -12 -10 -8 -9 -11 -10 -9 -8 -8 -8 -8 -8 -7 -7 -9 -10 -10 -11 -12 -13 -13 -14 -14 -13 -12 -11 -12 -15 -15 -14
-6 -7 -10 -10 -7 -7 -7 -6 -3 -1 -1 -4 -5 -8 -8 -10 -9 -9 -9 -11 -10 -10 -9 -10 -12 -12 -12 -11 -11 -11 -10 -10 -10 -11 -13 -14 -14 -14 -13 -13 -13 -13 -15 -16
-6 -3 -7 -11 -8 -6 -7 -6 -4 -1 -3 -6 -5 -4 -6 -11 -11 -12 -10 -9 -9 -8 -8 -10 -10 -10 -9 -9 -10 -11 -11 -10 -9 -9 -10 -12 -13 -14 -14 -13 -13 -12 -13 -15
-7 -4 -10 -12 -12 -10 -6 -4 -6 -4 -4 -3 -6 -10 -11 -10 -11 -9 -8 -9 -8 -8 -7 -7 -7 -7 -8 -8 -9 -9 -9 -11 -10 -9 -9 -10 -11 -12 -13 -14 -13 -13 -12 -13
-7 -4 -8 -10 -11 -9 -7 -8 -3 -4 3 -0 -6 -6 -8 -10 -11 -10 -9 -9 -8 -7 -7 -6 -6 -6 -5 -6 -8 -9 -9 -9 -9 -9 -8 -9 -10 -11 -12 -12 -13 -13 -13 -12
-7 -6 -5 -8 -7 -6 -7 -6 -7 -5 -5 -1 -1 -3 -11 -12 -11 -12 -11 -10 -10 -7 -7 -7 -7 -6 -6 -8 -9 -10 -12 -11 -10 -8 -9 -9 -8 -9 -9 -10 -12 -12 -12 -12
-7 -5 -4 -5 -9 -10 -9 -8 -8 -3 1 -4 -2 -2 -10 -13 -12 -10 -9 -10 -10 -8 -7 -7 -8 -7 -6 -8 -9 -11 -13 -11 -10 -10 -9 -7 -6 -7 -8 -8 -10 -11 -11 -12
-6 -5 -2 -3 -5 -7 -7 -8 -9 -6 -4 -0 2 0 -11 -12 -9 -8 -8 -8 -9 -9 -8 -8 -8 -7 -6 -7 -8 -11 -13 -14 -13 -11 -10 -8 -7 -7 -8 -8 -8 -9 -10 -10
-6 -4 -4 -2 -3 -4 -4 -5 -8 -7 -2 -0 -1 -3 -4 -5 -5 -7 -7 -7 -7 -7 -7 -7 -6 -5 -5 -6 -8 -11 -13 -14 -12 -11 -9 -8 -8 -8 -8 -8 -8 -10 -10 -10
-5 -3 -5 -5 -6 -5 -5 -5 -4 -5 -6 -3 -3 -3 -5 -5 -5 -7 -7 -7 -7 -7 -7 -6 -6 -5 -5 -6 -8 -12 -13 -15 -13 -11 -10 -9 -9 -9 -9 -9 -10 -10 -10 -10
-5 -3 -4 -3 -5 -5 -4 -4 -5 -5 -5 -5 -5 -4 -6 -6 -6 -7 -7 -6 -6 -5 -5 -5 -5 -4 -7 -8 -9 -12 -12 -14 -14 -13 -11 -11 -11 -11 -11 -11 -10 -10 -10 -10
-3 -3 -2 -1 -3 -3 -1 -3 -3 -4 -5 -4 -2 -4 -5 -5 -5 -6 -6 -5 -5 -5 -6 -5 -4 -5 -7 -9 -11 -10 -9 -8 -8 -10 -12 -12 -11 -11 -11 -11 -11 -11 -11 -11
-2 -2 0 2 -2 2 -1 -4 -5 -4 -4 -4 -4 -5 -5 -5 -5 -5 -6 -5 -6 -6 -7 -7 -7 -7 -8 -10 -9 -6 -5 -5 -5 -5 -6 -7 -10 -11 -11 -11 -11 -11 -11 -11
-4 -2 7 4 1 -1 -2 -3 -3 -3 -3 -4 -3 -4 -4 -5 -4 -6 -7 -8 -8 -8 -8 -8 -8 -8 -9 -9 -5 -5 -5 -5 -5 -5 -4 -4 -4 -4 -4 -5 -6 -9 -11 -11
-3 -3 2 3 5 5 -0 -3 -4 -5 -1 -4 -4 -5 -6 -4 -4 -3 -5 -7 -7 -7 -7 -8 -8 -9 -9 -6 -5 -5 -5 -5 -4 -4 -4 -4 -3 -3 -3 -3 -3 -3 -4 -6
1 2 6 4 6 2 -2 -4 -4 -0 1 -4 -6 -6 -4 -3 -5 -5 -6 -7 -7 -7 -7 -7 -7 -7 -7 -5 -5 -5 -4 -4 -4 -4 -3 -3 -3 -2 -2 -2 -2 -3 -3 -3
3 6 6 4 6 5 -2 -4 -3 -3 -1 -4 -5 -5 -4 -5 -5 -7 -7 -6 -6 -7 -6 -6 -7 -7 -6 -5 -5 -5 -4 -4 -4 -4 -4 -3 -2 -2 -2 -2 -2 -4 -5 -4
2 2 4 4 3 -0 -3 -3 -5 -4 -2 -2 -3 -4 -4 -4 -4 -4 -5 -4 -4 -5 -5 -6 -6 -6 -7 -6 -5 -5 -5 -4 -4 -4 -4 -2 -2 -1 -1 -2 -4 -5 -6 -6
-1 -3 1 1 -0 -1 -1 -3 -3 -2 -4 -5 -3 -3 -3 -3 -3 -3 -3 -3 -3 -4 -5 -5 -5 -5 -5 -5 -6 -7 -5 -3 -4 -4 -4 -2 -2 -1 -1 -3 -4 -3 -4 -5
0 -1 -1 -1 -2 -2 -2 -2 -2 -2 -3 -3 -3 -4 -4 -3 -3 -2 -2 -2 -3 -3 -3 -3 -3 -3 -4 -4 -4 -5 -6 -5 -4 -4 -4 -2 -1 -1 -2 -4 -4 -3 -3 -4
0 1 1 2 -1 -1 -1 -1 -1 -2 -2 -3 -3 -2 -1 -1 -1 -1 -2 -1 -1 -2 -2 -2 -3 -3 -2 -3 -3 -4 -4 -5 -5 -5 -3 -2 -1 -1 -2 -3 -4 -3 -3 -3

GFSCGP_850_dewp_312.txt.gz
Dewpoint
-5 -3 -1 -5 -5 -6 -7 -8 -7 -7 -7 -6 -5 -6 -8 -10 -8 -8 -8 -9 -9 -9 -8 -7 -7 -8 -9 -10 -10 -10 -9 -10 -12 -14 -16 -16 -19 -18 -18 -18 -19 -22 -21 -21
-5 -1 -6 -7 -6 -6 -6 -6 -6 -7 -8 -8 -7 -6 -7 -9 -8 -6 -7 -8 -9 -9 -9 -8 -8 -8 -8 -10 -10 -10 -10 -10 -11 -13 -15 -15 -16 -15 -16 -16 -16 -17 -21 -21
-5 -5 -8 -7 -6 -6 -6 -6 -7 -7 -6 -7 -6 -4 -7 -9 -9 -9 -8 -6 -8 -9 -9 -9 -8 -8 -8 -9 -10 -11 -12 -11 -11 -11 -11 -12 -10 -10 -11 -14 -18 -18 -16 -19
-5 -8 -7 -6 -6 -7 -4 -6 -6 -4 -3 -3 -7 -3 -8 -8 -7 -8 -8 -8 -7 -8 -9 -9 -9 -8 -8 -9 -9 -10 -11 -12 -11 -11 -11 -12 -13 -13 -15 -15 -15 -18 -19 -16
-4 -7 -6 -4 -6 -8 -5 -6 -5 -4 -3 -3 -4 -2 -8 -9 -8 -8 -8 -8 -8 -8 -8 -8 -9 -9 -9 -9 -10 -10 -11 -11 -11 -11 -11 -11 -11 -12 -13 -13 -14 -15 -16 -17
-5 -9 -8 -7 -8 -8 -7 -6 -4 -3 -2 3 -4 -6 -4 -6 -6 -9 -10 -10 -8 -8 -8 -8 -8 -8 -9 -9 -10 -10 -10 -10 -10 -10 -10 -10 -11 -11 -11 -12 -13 -13 -14 -16
-5 -6 -10 -10 -6 -6 -5 -3 3 5 5 2 -5 -4 -5 -7 -7 -8 -8 -11 -10 -10 -9 -9 -10 -10 -10 -10 -10 -9 -9 -9 -9 -9 -9 -9 -10 -10 -11 -12 -12 -11 -12 -14
-2 -0 -6 -10 -8 -6 -6 -4 -0 -0 1 -1 -4 -2 -2 -9 -10 -12 -11 -9 -9 -10 -9 -10 -10 -9 -9 -9 -9 -8 -8 -8 -7 -8 -8 -8 -8 -9 -10 -11 -11 -11 -12 -13
-5 -2 -10 -11 -11 -9 -5 -2 -4 -2 -5 0 -0 -4 -7 -10 -11 -9 -7 -8 -9 -9 -8 -8 -8 -7 -6 -7 -7 -7 -6 -7 -7 -7 -7 -7 -7 -8 -8 -9 -10 -10 -12 -12
-5 -2 -7 -10 -11 -9 -7 -7 -1 -0 5 2 -1 -4 -3 -7 -10 -8 -8 -8 -10 -9 -7 -7 -6 -6 -6 -7 -7 -7 -7 -8 -8 -9 -7 -7 -7 -7 -7 -7 -8 -9 -10 -11
-6 -5 -4 -7 -6 -5 -6 -5 -6 -4 -3 3 3 1 -11 -9 -9 -9 -10 -9 -10 -12 -8 -7 -7 -7 -7 -8 -7 -8 -8 -10 -11 -10 -9 -7 -6 -6 -6 -6 -7 -7 -8 -9
-5 -2 -2 -5 -9 -10 -9 -7 -6 2 2 -2 1 1 -11 -11 -11 -11 -11 -9 -8 -10 -9 -8 -8 -8 -8 -7 -7 -8 -8 -10 -12 -11 -10 -9 -8 -6 -5 -5 -5 -6 -7 -8
-5 -3 -1 -2 -4 -7 -6 -7 -7 -3 -1 3 5 4 -11 -10 -9 -8 -6 -6 -7 -7 -8 -8 -8 -7 -7 -6 -6 -7 -8 -10 -12 -13 -12 -10 -9 -7 -6 -5 -5 -5 -6 -6
-6 -2 -1 1 -0 -2 -4 -4 -7 -5 2 2 1 -1 -4 -3 -3 -5 -6 -7 -7 -7 -7 -7 -7 -7 -7 -5 -5 -6 -8 -10 -13 -14 -12 -11 -9 -8 -7 -7 -6 -5 -5 -5
-3 -1 -3 -4 -5 -4 -3 -2 -3 -4 -5 -2 -2 -2 -4 -5 -5 -6 -6 -7 -6 -6 -6 -6 -6 -5 -5 -5 -5 -6 -8 -12 -13 -14 -13 -11 -10 -9 -9 -8 -8 -7 -6 -5
-4 -1 -3 -3 -4 -4 -3 -3 -4 -3 -5 -6 -5 -5 -7 -7 -6 -5 -6 -6 -6 -7 -7 -6 -7 -8 -5 -5 -6 -7 -10 -12 -12 -12 -11 -12 -12 -12 -11 -10 -10 -9 -9 -9
-1 -1 -0 0 -3 -3 -0 -2 -3 -3 -4 -4 -2 -4 -5 -4 -4 -4 -5 -6 -6 -8 -7 -8 -8 -8 -7 -7 -7 -8 -11 -9 -8 -7 -6 -7 -8 -10 -11 -11 -11 -11 -10 -10
-1 -1 3 4 -1 3 -0 -4 -5 -3 -3 -4 -4 -3 -3 -4 -5 -5 -8 -7 -8 -8 -8 -8 -8 -8 -9 -8 -8 -10 -9 -6 -6 -5 -5 -5 -5 -5 -5 -6 -6 -7 -8 -9
-3 2 6 5 3 1 -1 -2 -3 -3 -2 -4 -3 -4 -4 -5 -4 -5 -6 -6 -7 -7 -8 -7 -7 -7 -8 -9 -9 -9 -6 -5 -5 -5 -5 -5 -5 -4 -4 -4 -4 -3 -3 -3
-1 -2 4 5 6 6 1 -3 -4 -4 -0 -3 -3 -3 -3 -3 -2 -2 -4 -5 -6 -7 -7 -7 -7 -7 -7 -7 -9 -7 -5 -5 -5 -5 -5 -4 -4 -4 -4 -3 -3 -2 -2 -2
1 2 4 6 6 5 -0 -4 -4 0 1 -3 -3 -3 -4 -3 -5 -5 -5 -5 -4 -5 -6 -6 -5 -6 -6 -7 -7 -7 -6 -5 -5 -5 -4 -4 -4 -4 -3 -3 -2 -2 -2 -2
2 5 5 4 5 6 -1 -4 -2 -2 -2 -3 -6 -6 -5 -6 -6 -5 -5 -5 -5 -4 -3 -3 -3 -5 -6 -6 -6 -7 -6 -6 -5 -4 -4 -4 -4 -4 -3 -2 -2 -2 -2 -3
4 4 5 3 3 -0 -2 -3 -4 -4 -3 -1 -3 -5 -5 -5 -4 -5 -4 -4 -4 -4 -3 -3 -2 -5 -5 -5 -5 -5 -4 -5 -6 -4 -4 -4 -3 -3 -3 -2 -2 -1 -2 -4
-1 -1 2 3 2 0 -1 -2 -2 -3 -3 -4 -4 -3 -3 -3 -3 -3 -4 -3 -3 -2 -1 -2 -2 -3 -3 -2 -3 -3 -3 -4 -4 -5 -5 -4 -3 -3 -3 -2 -2 -2 -3 -4
0 -1 -0 0 -1 -1 -1 -1 -1 -2 -2 -2 -2 -2 -2 -2 -3 -3 -2 -1 -0 -1 -1 -1 -2 -2 -2 -2 -3 -2 -1 -2 -3 -3 -3 -4 -2 -2 -2 -2 -1 -1 -3 -4
1 1 2 1 -1 -1 -1 -1 -0 -1 -1 -2 -1 -2 -2 -2 -0 1 1 1 1 0 -1 -1 -1 -1 -1 -2 -2 -2 0 -1 -2 -2 -2 -2 -2 -2 -2 -2 -1 -2 -4 -4

GFSCGP_850_dewp_315.txt.gz
Dewpoint
-4 -4 -4 -6 -6 -6 -6 -7 -8 -8 -7 -8 -7 -6 -7 -9 -7 -8 -8 -8 -8 -8 -8 -7 -7 -7 -7 -8 -10 -11 -11 -11 -12 -14 -19 -21 -22 -21 -21 -21 -19 -19 -21 -23
-5 -3 -7 -7 -7 -7 -6 -6 -6 -8 -9 -8 -8 -7 -8 -8 -7 -7 -8 -9 -9 -8 -8 -8 -8 -8 -8 -8 -9 -11 -12 -11 -12 -14 -15 -15 -17 -17 -18 -18 -18 -18 -18 -19
-5 -5 -8 -7 -6 -7 -6 -7 -7 -7 -5 -6 -7 -6 -9 -9 -9 -7 -7 -7 -8 -9 -9 -9 -8 -8 -8 -8 -9 -11 -12 -13 -13 -14 -13 -12 -11 -13 -15 -17 -19 -19 -18 -18
-5 -8 -7 -7 -6 -7 -6 -6 -6 -4 -4 -6 -7 -9 -7 -7 -7 -8 -8 -8 -6 -8 -8 -9 -9 -9 -9 -10 -10 -10 -11 -13 -13 -13 -12 -12 -13 -13 -15 -14 -15 -15 -17 -18
-4 -7 -6 -5 -6 -9 -7 -7 -7 -5 -3 -4 -3 -4 -4 -9 -8 -8 -8 -9 -8 -7 -8 -9 -9 -9 -10 -10 -10 -11 -11 -11 -12 -11 -11 -11 -11 -11 -12 -11 -12 -13 -14 -16
-6 -9 -8 -8 -9 -9 -8 -6 -5 -4 -1 2 -4 -9 -9 -7 -9 -9 -9 -9 -9 -9 -8 -8 -9 -9 -9 -10 -10 -10 -9 -10 -10 -10 -10 -10 -10 -10 -9 -10 -11 -11 -12 -13
-5 -7 -10 -10 -7 -7 -6 -3 3 3 3 1 -5 -6 -7 -7 -9 -9 -10 -10 -10 -10 -8 -9 -8 -9 -10 -10 -10 -9 -9 -9 -8 -8 -8 -9 -9 -9 -9 -9 -9 -10 -10 -12
-2 -1 -7 -10 -9 -6 -7 -4 -0 -2 -1 -2 -4 -6 -4 -9 -9 -12 -11 -9 -10 -11 -11 -11 -11 -11 -10 -10 -9 -9 -8 -8 -8 -7 -7 -7 -7 -8 -8 -8 -8 -8 -9 -10
-5 -3 -11 -11 -11 -9 -5 -3 -5 -3 -0 1 0 -5 -7 -11 -10 -9 -8 -9 -9 -10 -10 -9 -9 -9 -9 -8 -7 -7 -7 -7 -6 -6 -6 -6 -6 -6 -7 -7 -7 -7 -7 -8
-5 -4 -8 -10 -11 -9 -7 -7 -1 0 1 -2 -0 -2 -4 -8 -10 -8 -8 -9 -11 -13 -11 -10 -9 -9 -8 -8 -7 -7 -7 -7 -7 -7 -7 -7 -6 -6 -6 -6 -6 -6 -6 -6
-7 -5 -5 -8 -7 -5 -7 -5 -6 -3 -0 2 1 -0 -7 -10 -10 -10 -11 -10 -10 -10 -10 -11 -11 -10 -7 -7 -7 -8 -7 -7 -8 -9 -11 -10 -9 -8 -6 -5 -5 -5 -5 -5
-6 -5 -3 -5 -9 -10 -9 -7 -5 2 0 -2 1 -1 -6 -9 -10 -11 -10 -6 -6 -7 -8 -9 -9 -7 -7 -7 -7 -7 -6 -7 -8 -9 -11 -12 -11 -9 -8 -7 -6 -5 -5 -5
-6 -5 -2 -2 -3 -6 -8 -8 -7 -2 1 1 3 -0 -7 -11 -10 -6 -6 -7 -7 -7 -7 -7 -7 -7 -7 -7 -7 -6 -6 -6 -7 -9 -12 -13 -12 -10 -9 -8 -7 -6 -5 -5
-6 -3 -2 1 -0 -3 -5 -5 -7 -5 -2 -2 1 -3 -3 -8 -5 -5 -7 -6 -6 -6 -7 -9 -9 -9 -9 -7 -5 -5 -5 -6 -7 -10 -13 -14 -12 -11 -10 -8 -7 -7 -6 -6
-5 -4 -3 -3 -4 -4 -4 -4 -5 -5 -4 -2 -3 -1 -4 -4 -5 -7 -7 -6 -6 -8 -9 -9 -9 -9 -8 -9 -6 -5 -5 -6 -8 -12 -13 -13 -12 -11 -11 -11 -10 -9 -8 -8
-5 -2 -3 -3 -4 -4 -4 -3 -3 -5 -6 -5 -5 -5 -8 -8 -7 -7 -5 -6 -7 -7 -9 -9 -8 -8 -8 -8 -8 -7 -6 -7 -9 -12 -11 -9 -8 -8 -8 -10 -11 -11 -10 -9
-3 -1 -2 -2 -3 -3 -1 -3 -3 -3 -4 -5 -4 -6 -7 -6 -5 -4 -5 -7 -8 -7 -9 -8 -8 -7 -7 -7 -8 -9 -8 -8 -11 -9 -7 -6 -6 -6 -6 -6 -6 -7 -8 -10
-2 -1 1 2 -1 2 -2 -4 -4 -3 -4 -4 -5 -5 -5 -6 -6 -5 -6 -8 -8 -6 -8 -7 -7 -7 -7 -7 -7 -8 -9 -10 -10 -7 -6 -6 -6 -5 -5 -5 -5 -5 -5 -5
-3 1 3 4 2 0 -2 -3 -3 -3 -1 -4 -4 -5 -5 -5 -5 -5 -6 -7 -5 -5 -5 -4 -3 -4 -5 -6 -7 -7 -7 -9 -8 -6 -6 -6 -5 -5 -5 -5 -5 -4 -4 -3
-2 1 1 3 3 4 -0 -3 -4 -5 -0 -4 -4 -4 -4 -4 -2 -3 -5 -4 -4 -3 -3 -2 -3 -1 -1 -1 -4 -6 -7 -7 -7 -7 -6 -5 -5 -5 -5 -5 -4 -4 -3 -3
1 1 3 4 3 3 1 -3 -4 -1 1 -3 -4 -5 -3 -3 -4 -4 -5 -4 -4 -5 -4 -5 -5 -2 0 1 -4 -5 -6 -6 -6 -6 -6 -5 -5 -4 -4 -4 -3 -3 -3 -2
1 2 3 3 4 4 -1 -4 -2 -2 -2 -3 -4 -4 -4 -4 -4 -5 -6 -5 -5 -5 -4 -4 -4 -3 -2 -1 -1 -4 -4 -4 -5 -4 -5 -5 -5 -4 -3 -3 -3 -2 -2 -2
1 0 2 2 2 -2 -2 -3 -4 -3 -4 -3 -2 -4 -4 -4 -5 -5 -5 -5 -5 -4 -4 -2 -2 -1 -1 -1 -1 -2 -1 -1 -3 -3 -3 -4 -4 -4 -3 -2 -2 -2 -2 -2
-1 -0 3 0 -1 0 -2 -2 -2 -3 -3 -3 -4 -4 -3 -3 -3 -2 -2 -3 -3 -2 -1 1 1 1 -0 -1 -2 -2 -1 -1 -2 -3 -1 -0 -1 -3 -3 -2 -1 -1 -2 -2
-0 -0 1 1 -1 -0 0 -1 -1 -2 -2 -2 -2 -2 -2 -2 -2 -2 -2 -2 -1 0 1 2 2 0 -1 -1 -1 -1 -1 -1 -2 -2 -1 -0 -1 -2 -1 -1 -0 -1 -1 -2
-1 -1 0 1 -2 -2 -2 -1 -1 -1 -1 -1 -1 -1 -1 -1 -1 -1 -0 0 2 2 2 2 0 -1 -0 0 1 0 -1 -1 -1 -0 -0 -1 -1 -1 -0 0 -0 -1 -2 -2